Location: Mountain Grove
(34.0887°N, 86.6172°W)
Time: 00:45:10
(UTC+00:00)

OAO 3 Copernicus - Pass Details

Date: 14 July 2020
Orbit: 695 x 704 km, 35.0° (Epoch: 12 August)

Event Time Altitude Azimuth Distance (km) Brightness Sun altitude
Rises 03:08:31 0° 277° (W) 3,080 8.4 -22.0°
Reaches altitude 10° 03:10:56 10° 278° (W) 2,161 7.5 -22.3°
Maximum altitude 03:16:01 84° 5° (N) 707 4.2 -23.0°
Enters shadow 03:17:09 55° 88° (E) 840 4.4 -23.2°
